Location: Unspecified
(0.0000°N, 0.0000°E)
Time: 18:46:34
(UTC+02:00)

ISS - All Passes

Search period start: 30 June 2015 00:00
Search period end: 10 July 2015 00:00
Orbit: 398 x 403 km, 51.6° (Epoch: 30 June)

Date Brightness Start Highest point End Pass type
(mag) Time Alt. Az. Time Alt. Az. Time Alt. Az.
30 Jun - 07:49:46 10° SSE 07:51:31 14° SE 07:53:23 10° E daylight
30 Jun - 09:25:36 10° W 09:27:50 17° NW 09:29:57 10° NNW daylight
30 Jun - 20:58:12 10° WNW 21:01:02 27° SW 21:03:50 10° S visible
01 Jul - 08:31:14 10° SW 08:34:23 47° NW 08:37:30 10° NNE daylight
01 Jul - 20:04:23 10° NW 20:07:37 89° SW 20:10:51 10° SE daylight
02 Jul - 07:37:49 10° SSW 07:40:58 49° SE 07:44:07 10° NE visible
02 Jul - 19:11:23 10° N 19:14:11 28° NE 19:17:02 10° ESE daylight
03 Jul - 06:45:17 10° S 06:47:29 17° SE 06:49:47 10° E visible
03 Jul - 08:22:01 10° W 08:23:48 14° NW 08:25:26 10° NNW daylight
03 Jul - 18:20:05 10° NE 18:20:40 10° NE 18:21:26 10° ENE daylight
03 Jul - 19:54:22 10° WNW 19:56:58 22° SW 19:59:32 10° S daylight
04 Jul - 07:27:15 10° SW 07:30:17 36° NW 07:33:19 10° NNE visible
04 Jul - 19:00:18 10° NW 19:03:30 68° SW 19:06:43 10° SSE daylight
05 Jul - 06:33:37 10° SSW 06:36:50 65° SE 06:40:03 10° NE visible
05 Jul - 18:07:04 10° NNW 18:10:03 35° NE 18:13:03 10° ESE daylight
06 Jul - 05:40:49 10° S 05:43:21 21° SE 05:45:56 10° ENE visible
06 Jul - 07:18:37 10° WNW 07:19:39 11° NW 07:20:31 10° NW visible
06 Jul - 17:14:59 10° NNE 17:16:30 13° NE 17:18:10 10° E daylight
06 Jul - 18:50:29 10° W 18:52:48 18° SW 18:55:03 10° S daylight
07 Jul - 06:23:11 10° WSW 06:26:05 29° NW 06:28:57 10° N visible
07 Jul - 17:56:08 10° NW 17:59:16 51° SW 18:02:26 10° SSE daylight
08 Jul - 05:29:20 10° SW 05:32:36 85° SE 05:35:50 10° NE visible
08 Jul - 17:02:42 10° NNW 17:05:47 45° NE 17:08:53 10° SE daylight
09 Jul - 04:36:18 10° S 04:39:04 26° SE 04:41:52 10° ENE night (unlit)
09 Jul - 16:10:13 10° NNE 16:12:13 16° NE 16:14:21 10° E daylight
09 Jul - 17:46:35 10° W 17:48:31 14° SW 17:50:20 10° SSW daylight
